This is the latest recevied weather packets stored in our database for station/object N4BBA. If no packets are shown the sender has not sent any weather packets the latest 10 day(s).
| Time | Temp. | Humidity | Pressure | Rain* | Wind** | Luminosity | Snow |
|---|---|---|---|---|---|---|---|
| 1777560926 | 17.22° C | 90% | 1010.1 hPa | 0 mm | - | 181 W/m² | - |
| 1777560624 | 17.22° C | 91% | 1010.2 hPa | 0 mm | - | 161 W/m² | - |
| 1777560321 | 17.22° C | 92% | 1010.1 hPa | 0 mm | - | 164 W/m² | - |
| 1777560019 | 17.22° C | 92% | 1010.2 hPa | 0 mm | - | 154 W/m² | - |
| 1777559714 | 16.67° C | 93% | 1010.3 hPa | 0 mm | - | 156 W/m² | - |
| 1777559412 | 16.67° C | 94% | 1010.3 hPa | 0 mm | - | 186 W/m² | - |
| 1777559109 | 16.67° C | 94% | 1010.3 hPa | 0 mm | - | 177 W/m² | - |
| 1777558803 | 16.67° C | 95% | 1010.2 hPa | 0 mm | - | 197 W/m² | - |
| 1777558499 | 16.67° C | 96% | 1009.9 hPa | 0 mm | - | 147 W/m² | - |
| 1777558195 | 16.67° C | 96% | 1009.4 hPa | 0 mm | - | 213 W/m² | - |
| 1777557892 | 16.67° C | 96% | 1009.3 hPa | 0 mm | - | 250 W/m² | - |
| 1777557589 | 16.11° C | 97% | 1008.9 hPa | 0 mm | - | 257 W/m² | - |
| 1777557285 | 15.56° C | 97% | 1008.7 hPa | 0 mm | - | 234 W/m² | - |
| 1777556981 | 15.56° C | 97% | 1008.8 hPa | 0 mm | - | 271 W/m² | - |
| 1777556677 | 15° C | 97% | 1008.7 hPa | 0 mm | - | 242 W/m² | - |
| 1777556373 | 15° C | 98% | 1008.6 hPa | 0 mm | - | 196 W/m² | - |
| 1777556068 | 15° C | 98% | 1008.6 hPa | 0 mm | - | 162 W/m² | - |
| 1777555768 | 15° C | 98% | 1008.8 hPa | 0 mm | - | 152 W/m² | - |
| 1777555465 | 15° C | 98% | 1008.4 hPa | 0 mm | - | 135 W/m² | - |
| 1777555161 | 15° C | 98% | 1008.5 hPa | 0 mm | - | 129 W/m² | - |
| 1777554859 | 15° C | 98% | 1008.3 hPa | 0 mm | - | 134 W/m² | - |
| 1777554555 | 15° C | 98% | 1008.2 hPa | 0 mm | - | 123 W/m² | - |
| 1777554252 | 15° C | 98% | 1008.4 hPa | 0 mm | - | 118 W/m² | - |
| 1777553949 | 15° C | 98% | 1008.5 hPa | 0 mm | - | 124 W/m² | - |
| 1777553645 | 15° C | 98% | 1008.8 hPa | 0 mm | - | 115 W/m² | - |
* Rain latest hour (hover to see other rain measurements)
** Current wind speed in m/s (hover to see current wind gust speed)